�������l�o���
Date,Time,MP-1(��Sv/h),MP-2(��Sv/h),MP-3(��Sv/h),MP-4(��Sv/h),MP-5(��Sv/h),MP-6(��Sv/h),MP-7(��Sv/h),MP-8(��Sv/h),����,����(m/s),���J
2023/11/10,00:00,0.520,0.786,0.490,0.987,0.711,0.315,0.566,0.528,��쐼,5.6,��
2023/11/10,00:10,0.520,0.783,0.489,0.986,0.712,0.315,0.568,0.527,��쐼,6.0,��
2023/11/10,00:20,0.519,0.785,0.488,0.988,0.710,0.315,0.568,0.527,��쐼,5.9,��
2023/11/10,00:30,0.520,0.784,0.489,0.986,0.711,0.315,0.568,0.526,��쐼,6.1,��
2023/11/10,00:40,0.521,0.785,0.487,0.985,0.712,0.314,0.568,0.528,��,6.9,��
2023/11/10,00:50,0.519,0.783,0.487,0.987,0.712,0.314,0.568,0.527,��,7.2,��
2023/11/10,01:00,0.519,0.785,0.487,0.985,0.712,0.314,0.567,0.526,��,6.9,��
2023/11/10,01:10,0.519,0.784,0.489,0.985,0.711,0.314,0.568,0.528,��,7.0,��
2023/11/10,01:20,0.519,0.785,0.488,0.986,0.713,0.314,0.567,0.526,��,6.8,��
2023/11/10,01:30,0.518,0.784,0.489,0.986,0.712,0.315,0.567,0.527,��,7.4,��
2023/11/10,01:40,0.520,0.785,0.488,0.985,0.712,0.314,0.568,0.528,��,7.4,��
2023/11/10,01:50,0.519,0.784,0.490,0.983,0.711,0.316,0.567,0.526,��,7.0,��
2023/11/10,02:00,0.520,0.783,0.490,0.986,0.712,0.316,0.568,0.526,��쐼,6.2,��
2023/11/10,02:10,0.519,0.785,0.489,0.987,0.711,0.316,0.568,0.526,��쐼,5.8,��
2023/11/10,02:20,0.521,0.784,0.488,0.987,0.711,0.315,0.568,0.528,��,6.4,��
2023/11/10,02:30,0.518,0.785,0.489,0.985,0.711,0.317,0.568,0.525,��,7.0,��
2023/11/10,02:40,0.518,0.785,0.488,0.987,0.712,0.315,0.569,0.529,��,7.3,��
2023/11/10,02:50,0.519,0.787,0.489,0.986,0.710,0.316,0.567,0.527,��쐼,6.5,��
2023/11/10,03:00,0.519,0.785,0.490,0.986,0.710,0.313,0.570,0.527,��,7.3,��
2023/11/10,03:10,0.519,0.786,0.487,0.986,0.711,0.315,0.567,0.526,��,6.8,��
2023/11/10,03:20,0.520,0.783,0.488,0.986,0.711,0.315,0.567,0.528,��,7.6,��
2023/11/10,03:30,0.519,0.784,0.489,0.985,0.710,0.315,0.568,0.527,��,7.4,��
2023/11/10,03:40,0.518,0.786,0.489,0.988,0.711,0.317,0.568,0.528,��,7.6,��
2023/11/10,03:50,0.519,0.784,0.488,0.988,0.713,0.317,0.568,0.527,��,8.1,��
2023/11/10,04:00,0.520,0.784,0.489,0.986,0.712,0.316,0.568,0.527,��,8.4,��
2023/11/10,04:10,0.519,0.783,0.488,0.986,0.710,0.316,0.567,0.527,��,7.9,��
2023/11/10,04:20,0.520,0.783,0.490,0.986,0.710,0.316,0.568,0.529,��,8.1,��
2023/11/10,04:30,0.519,0.782,0.489,0.988,0.710,0.315,0.569,0.528,��,9.2,��
2023/11/10,04:40,0.519,0.787,0.489,0.988,0.712,0.315,0.568,0.528,��,8.3,��
2023/11/10,04:50,0.520,0.785,0.487,0.986,0.709,0.315,0.567,0.528,��,8.1,��
2023/11/10,05:00,0.520,0.786,0.490,0.986,0.711,0.315,0.568,0.528,��쐼,8.9,��
2023/11/10,05:10,0.519,0.785,0.488,0.986,0.711,0.316,0.568,0.529,��쐼,9.6,��
2023/11/10,05:20,0.519,0.785,0.488,0.987,0.710,0.316,0.568,0.527,��쐼,10.2,��
2023/11/10,05:30,0.519,0.785,0.489,0.985,0.712,0.317,0.569,0.528,��쐼,9.3,��
2023/11/10,05:40,0.520,0.784,0.488,0.985,0.710,0.317,0.569,0.527,��쐼,9.7,��
2023/11/10,05:50,0.520,0.785,0.488,0.988,0.710,0.315,0.568,0.526,��쐼,9.3,��
2023/11/10,06:00,0.521,0.786,0.489,0.984,0.711,0.314,0.568,0.528,��쐼,8.8,��
2023/11/10,06:10,0.518,0.785,0.488,0.988,0.710,0.316,0.567,0.528,��쐼,7.9,��
2023/11/10,06:20,0.520,0.785,0.488,0.985,0.711,0.315,0.569,0.529,��쐼,6.2,��
2023/11/10,06:30,0.521,0.783,0.488,0.987,0.712,0.314,0.567,0.529,��,5.9,��
2023/11/10,06:40,0.517,0.785,0.488,0.986,0.710,0.316,0.567,0.528,��,5.0,��
2023/11/10,06:50,0.519,0.785,0.488,0.987,0.710,0.313,0.569,0.529,��쐼,5.5,��
2023/11/10,07:00,0.520,0.785,0.488,0.987,0.709,0.314,0.569,0.528,��쐼,5.6,��
2023/11/10,07:10,0.519,0.786,0.490,0.987,0.711,0.315,0.568,0.529,��,5.7,��
2023/11/10,07:20,0.519,0.787,0.490,0.986,0.709,0.316,0.568,0.528,��,6.6,��
2023/11/10,07:30,0.520,0.784,0.489,0.987,0.710,0.315,0.569,0.529,��쐼,6.2,��
2023/11/10,07:40,0.520,0.788,0.488,0.985,0.712,0.316,0.569,0.528,��,7.5,��
2023/11/10,07:50,0.520,0.787,0.489,0.988,0.710,0.316,0.569,0.528,��,6.6,��
2023/11/10,08:00,0.519,0.786,0.489,0.986,0.711,0.315,0.569,0.529,��쓌,5.7,��
2023/11/10,08:10,0.521,0.785,0.489,0.986,0.710,0.315,0.568,0.528,��,5.6,��
2023/11/10,08:20,0.519,0.785,0.488,0.986,0.712,0.316,0.568,0.529,��,5.1,��
2023/11/10,08:30,0.520,0.781,0.489,0.988,0.712,0.316,0.570,0.528,��,5.2,��
2023/11/10,08:40,0.520,0.783,0.491,0.984,0.711,0.314,0.567,0.529,��,4.9,��
2023/11/10,08:50,0.518,0.784,0.488,0.986,0.712,0.315,0.567,0.529,��,5.2,��
2023/11/10,09:00,0.521,0.783,0.491,0.987,0.712,0.315,0.568,0.530,��,6.1,��
2023/11/10,09:10,0.518,0.781,0.490,0.987,0.713,0.315,0.566,0.530,��,5.2,��
2023/11/10,09:20,0.520,0.780,0.491,0.990,0.714,0.315,0.567,0.530,��,7.2,��
2023/11/10,09:30,0.519,0.784,0.491,0.987,0.711,0.316,0.567,0.530,��,7.6,��
2023/11/10,09:40,0.519,0.782,0.491,0.987,0.712,0.314,0.566,0.528,��,7.3,��
2023/11/10,09:50,0.519,0.782,0.489,0.988,0.710,0.314,0.567,0.529,��,7.6,��
2023/11/10,10:00,0.520,0.782,0.489,0.988,0.711,0.315,0.567,0.529,��,7.0,��
2023/11/10,10:10,0.518,0.783,0.489,0.988,0.710,0.315,0.567,0.528,��,7.3,��
2023/11/10,10:20,0.520,0.783,0.488,0.990,0.710,0.314,0.567,0.528,��,7.6,��
2023/11/10,10:30,0.520,0.781,0.492,0.989,0.713,0.314,0.568,0.529,��쓌,8.4,��
2023/11/10,10:40,0.520,0.783,0.489,0.986,0.710,0.313,0.567,0.526,��쓌,8.9,��
2023/11/10,10:50,0.519,0.784,0.489,0.989,0.713,0.314,0.567,0.527,��,7.7,��
2023/11/10,11:00,0.518,0.784,0.488,0.989,0.711,0.314,0.568,0.526,��,7.9,��
2023/11/10,11:10,0.521,0.782,0.488,0.987,0.710,0.313,0.567,0.527,��,8.1,��
2023/11/10,11:20,0.519,0.784,0.488,0.989,0.712,0.315,0.568,0.527,��,8.2,��
2023/11/10,11:30,0.518,0.784,0.491,0.989,0.711,0.315,0.568,0.529,��,8.0,��
2023/11/10,11:40,0.519,0.783,0.489,0.990,0.712,0.314,0.568,0.528,��,7.4,��
2023/11/10,11:50,0.519,0.784,0.489,0.989,0.711,0.316,0.567,0.527,��,7.5,�L
2023/11/10,12:00,0.521,0.783,0.491,0.990,0.710,0.314,0.567,0.528,��,8.7,�L
2023/11/10,12:10,0.520,0.784,0.492,0.991,0.710,0.315,0.568,0.528,��,10.3,��
2023/11/10,12:20,0.520,0.784,0.490,0.988,0.710,0.314,0.567,0.527,��쐼,9.4,��
2023/11/10,12:30,0.518,0.783,0.490,0.989,0.711,0.314,0.567,0.528,��,9.3,��
2023/11/10,12:40,0.521,0.783,0.489,0.989,0.712,0.315,0.568,0.525,��,8.7,��
2023/11/10,12:50,0.519,0.788,0.489,0.990,0.712,0.314,0.568,0.528,��,7.9,��
2023/11/10,13:00,0.518,0.787,0.489,0.992,0.710,0.315,0.568,0.527,��쐼,8.1,��
2023/11/10,13:10,0.519,0.784,0.490,0.991,0.711,0.313,0.568,0.527,��,7.0,��
2023/11/10,13:20,0.520,0.782,0.490,0.991,0.709,0.314,0.567,0.530,��,6.9,��
2023/11/10,13:30,0.521,0.786,0.489,0.990,0.712,0.314,0.567,0.528,��,7.7,��
2023/11/10,13:40,0.520,0.781,0.490,0.990,0.713,0.315,0.569,0.529,��,8.2,��
2023/11/10,13:50,0.520,0.783,0.490,0.990,0.711,0.315,0.567,0.528,��,9.1,��
2023/11/10,14:00,0.519,0.786,0.489,0.990,0.714,0.315,0.567,0.529,��,8.5,��
2023/11/10,14:10,0.520,0.785,0.490,0.990,0.713,0.315,0.567,0.529,��,8.1,��
2023/11/10,14:20,0.520,0.785,0.490,0.991,0.714,0.314,0.566,0.528,��,6.4,��
2023/11/10,14:30,0.518,0.783,0.492,0.991,0.714,0.315,0.568,0.528,��,6.6,��
2023/11/10,14:40,0.519,0.786,0.492,0.989,0.714,0.315,0.567,0.527,��,7.3,�L
2023/11/10,14:50,0.522,0.786,0.491,0.992,0.712,0.315,0.567,0.529,��,6.8,�L
2023/11/10,15:00,0.521,0.787,0.490,0.990,0.714,0.316,0.568,0.529,��,8.0,�L
2023/11/10,15:10,0.521,0.789,0.493,0.992,0.711,0.316,0.568,0.530,��,9.0,�L
2023/11/10,15:20,0.522,0.790,0.493,0.993,0.712,0.317,0.567,0.530,��,9.7,�L
2023/11/10,15:30,0.522,0.789,0.495,0.989,0.714,0.316,0.568,0.527,��,7.9,��
2023/11/10,15:40,0.522,0.787,0.493,0.990,0.713,0.317,0.568,0.529,��,8.7,�L
2023/11/10,15:50,0.522,0.790,0.493,0.991,0.715,0.316,0.567,0.531,��,7.0,�L
2023/11/10,16:00,0.524,0.791,0.494,0.992,0.716,0.316,0.568,0.532,��,7.5,�L
2023/11/10,16:10,0.522,0.789,0.494,0.990,0.715,0.316,0.568,0.531,��,7.7,�L
2023/11/10,16:20,0.522,0.792,0.494,0.991,0.718,0.316,0.569,0.530,��,6.5,�L
2023/11/10,16:30,0.522,0.792,0.494,0.992,0.717,0.317,0.568,0.531,��쐼,6.9,�L
2023/11/10,16:40,0.522,0.789,0.494,0.992,0.718,0.317,0.570,0.529,��쐼,6.7,�L
2023/11/10,16:50,0.521,0.789,0.493,0.992,0.715,0.318,0.569,0.531,��쐼,6.6,�L
2023/11/10,17:00,0.523,0.789,0.491,0.992,0.716,0.316,0.568,0.529,��쐼,6.8,�L
2023/11/10,17:10,0.521,0.788,0.493,0.992,0.714,0.317,0.567,0.530,��쐼,6.5,�L
2023/11/10,17:20,0.522,0.789,0.491,0.988,0.710,0.318,0.567,0.531,��쐼,5.9,�L
2023/11/10,17:30,0.521,0.785,0.493,0.990,0.711,0.319,0.566,0.527,��쐼,5.5,�L
2023/11/10,17:40,0.521,0.784,0.492,0.990,0.709,0.318,0.566,0.528,��쐼,5.3,�L
2023/11/10,17:50,0.518,0.784,0.492,0.989,0.710,0.318,0.567,0.528,��쐼,6.0,�L
2023/11/10,18:00,0.519,0.785,0.491,0.990,0.711,0.318,0.567,0.525,��쐼,5.4,�L
2023/11/10,18:10,0.520,0.784,0.491,0.988,0.707,0.317,0.565,0.528,��쐼,5.0,�L
2023/11/10,18:20,0.521,0.785,0.490,0.987,0.708,0.317,0.566,0.528,��쐼,4.9,��
2023/11/10,18:30,0.520,0.783,0.489,0.987,0.710,0.318,0.566,0.527,��쐼,4.4,��
2023/11/10,18:40,0.520,0.782,0.489,0.988,0.710,0.317,0.566,0.529,��쐼,4.3,��
2023/11/10,18:50,0.518,0.782,0.489,0.988,0.706,0.317,0.567,0.526,��쐼,3.5,��
2023/11/10,19:00,0.520,0.782,0.488,0.986,0.710,0.317,0.566,0.529,�쐼,2.8,��
2023/11/10,19:10,0.520,0.784,0.487,0.986,0.709,0.317,0.567,0.528,���쐼,1.9,�L
2023/11/10,19:20,0.518,0.782,0.489,0.986,0.710,0.316,0.565,0.528,���쐼,2.5,�L
2023/11/10,19:30,0.518,0.782,0.489,0.984,0.709,0.317,0.566,0.529,�쐼,3.3,�L
2023/11/10,19:40,0.520,0.781,0.487,0.986,0.708,0.316,0.567,0.528,�쐼,5.2,�L
2023/11/10,19:50,0.519,0.781,0.488,0.988,0.707,0.317,0.567,0.528,��쐼,6.2,��
2023/11/10,20:00,0.519,0.779,0.488,0.987,0.709,0.317,0.567,0.528,��쐼,4.7,��
2023/11/10,20:10,0.519,0.782,0.488,0.987,0.708,0.316,0.565,0.530,�쐼,3.3,��
2023/11/10,20:20,0.520,0.782,0.488,0.984,0.708,0.317,0.567,0.527,��쐼,3.5,��
2023/11/10,20:30,0.521,0.782,0.488,0.986,0.707,0.316,0.566,0.527,��쐼,3.9,��
2023/11/10,20:40,0.519,0.783,0.489,0.986,0.708,0.317,0.566,0.528,�쐼,3.7,��
2023/11/10,20:50,0.518,0.781,0.489,0.985,0.708,0.314,0.568,0.528,�쐼,4.2,��
2023/11/10,21:00,0.519,0.782,0.488,0.988,0.710,0.317,0.567,0.529,���쐼,3.6,��
2023/11/10,21:10,0.519,0.782,0.489,0.986,0.706,0.316,0.567,0.527,��,3.5,��
2023/11/10,21:20,0.519,0.782,0.488,0.989,0.709,0.316,0.567,0.527,�k��,3.9,��
2023/11/10,21:30,0.518,0.783,0.490,0.988,0.709,0.316,0.567,0.528,�k��,7.0,��
2023/11/10,21:40,0.521,0.782,0.489,0.987,0.709,0.317,0.566,0.528,�k��,7.5,��
2023/11/10,21:50,0.519,0.782,0.489,0.988,0.710,0.316,0.568,0.528,�k��,9.5,��
2023/11/10,22:00,0.518,0.783,0.489,0.989,0.708,0.317,0.565,0.528,���k��,8.5,��
2023/11/10,22:10,0.520,0.783,0.490,0.988,0.709,0.316,0.565,0.529,���k��,8.3,��
2023/11/10,22:20,0.518,0.780,0.490,0.989,0.707,0.315,0.564,0.528,���k��,10.2,��
2023/11/10,22:30,0.519,0.783,0.489,0.988,0.707,0.315,0.566,0.526,���k��,11.0,��
2023/11/10,22:40,0.519,0.784,0.490,0.989,0.709,0.316,0.567,0.526,���k��,10.2,��
2023/11/10,22:50,0.519,0.783,0.488,0.988,0.706,0.315,0.566,0.526,���k��,7.2,��
2023/11/10,23:00,0.520,0.784,0.488,0.988,0.708,0.314,0.567,0.529,���k��,7.8,��
2023/11/10,23:10,0.520,0.782,0.488,0.988,0.708,0.315,0.565,0.528,���k��,5.8,��
2023/11/10,23:20,0.521,0.781,0.491,0.987,0.710,0.315,0.568,0.529,���k��,6.2,��
2023/11/10,23:30,0.519,0.782,0.489,0.990,0.710,0.315,0.567,0.529,�k��,7.0,��
2023/11/10,23:40,0.519,0.782,0.490,0.987,0.708,0.315,0.565,0.529,�k��,8.0,��
2023/11/10,23:50,0.520,0.784,0.489,0.990,0.709,0.315,0.566,0.530,���k��,7.5,��
